Chamberlain, SD

8:02 AM CDT on September 22, 2017 (GMT -0500)
Chamberlain

Weather History for K9V9 - September, 2013

Change the Weather History Date:

Sunday, September 22, 2013

  Actual Average Record
Temperature  
Mean Temperature 74 °F -  
Max Temperature 90 °F 70 °F 90 °F (2013)
Min Temperature 57 °F 43 °F 30 °F (2012)
Cooling Degree Days 8    
Growing Degree Days 24 (Base 50)    
Moisture  
Dew Point 52 °F    
Average Humidity 52    
Maximum Humidity 78    
Minimum Humidity 28    
Precipitation  
Precipitation 0.00 in - - ()
Sea Level Pressure  
Sea Level Pressure 29.60 in    
Wind  
Wind Speed 14 mph (SSW)    
Max Wind Speed 26 mph    
Max Gust Speed 36 mph    
Averages and records for this station are not official NWS values.
T = Trace of Precipitation, MM = Missing Value Source: NWS Daily Summary

Daily Weather History Graph

Daily Weather History Graph

Search for Another Location

Airport or City:

Trip Planner

Search our weather history database for the weather conditions in past years. The results will help you decide how hot, cold, wet, or windy it might be!

Date:

Astronomy

Sep. 22, 2013 Rise Set
Actual Time 7:24 AM CDT 7:34 PM CDT
Civil Twilight 6:56 AM CDT 8:02 PM CDT
Nautical Twilight 6:22 AM CDT 8:36 PM CDT
Astronomical Twilight 5:47 AM CDT 9:10 PM CDT
Moon 9:16 PM CDT 10:54 AM CDT
Length of Visible Light 13h 06m
Length of Day
12h 09m
Waning Gibbous, 88% of the Moon is Illuminated
Sep 22
Waning Gibbous
Sep 26
Last Quarter
Oct 4
New
Oct 11
First Quarter
Oct 18
Full

Hourly Weather History & Observations

Time (CDT) Temp. Heat Index Dew Point Humidity Pressure Visibility Wind Dir Wind Speed Gust Speed Precip Events Conditions
12:52 AM 61.0 °F - 51.1 °F 70% 29.68 in - South 10.4 mph - N/A   Unknown
1:52 AM 60.1 °F - 51.1 °F 72% 29.66 in - South 12.7 mph - N/A   Unknown
2:52 AM 60.1 °F - 51.1 °F 72% 29.65 in - South 11.5 mph - N/A   Unknown
3:52 AM 60.1 °F - 51.1 °F 72% 29.64 in - South 9.2 mph - N/A   Unknown
4:52 AM 57.9 °F - 50.0 °F 75% 29.64 in - South 8.1 mph - N/A   Unknown
5:52 AM 57.9 °F - 50.0 °F 75% 29.64 in - South 9.2 mph - N/A   Unknown
6:52 AM 57.0 °F - 50.0 °F 77% 29.64 in - South 10.4 mph - N/A   Unknown
7:52 AM 57.9 °F - 51.1 °F 78% 29.65 in - SSE 6.9 mph - N/A   Unknown
8:52 AM 64.0 °F - 53.1 °F 67% 29.64 in - South 6.9 mph - N/A   Unknown
9:52 AM 71.1 °F - 53.1 °F 53% 29.64 in - SW 11.5 mph - N/A   Unknown
10:52 AM 75.0 °F - 54.0 °F 48% 29.63 in - SW 18.4 mph 25.3 mph N/A   Unknown
11:52 AM 80.1 °F 80.1 °F 55.0 °F 42% 29.62 in - SW 15.0 mph 23.0 mph N/A   Unknown
12:52 PM 84.9 °F 83.7 °F 55.9 °F 37% 29.60 in - SW 16.1 mph 28.8 mph N/A   Unknown
1:52 PM 88.0 °F 86.1 °F 55.0 °F 32% 29.57 in - SW 23.0 mph 35.7 mph N/A   Unknown
2:52 PM 89.1 °F 86.7 °F 53.1 °F 29% 29.55 in - SW 24.2 mph 35.7 mph N/A   Unknown
3:52 PM 90.0 °F 87.5 °F 53.1 °F 28% 29.53 in - SSW 26.5 mph 34.5 mph N/A   Unknown
4:52 PM 89.1 °F - 52.0 °F 28% 29.52 in - SSW 25.3 mph 34.5 mph N/A   Unknown
5:52 PM 86.0 °F - 52.0 °F 31% 29.54 in - SSW 21.9 mph 35.7 mph N/A   Unknown
6:52 PM 82.0 °F 81.2 °F 53.1 °F 37% 29.54 in - SSW 20.7 mph 29.9 mph N/A   Unknown
7:52 PM 79.0 °F - 52.0 °F 39% 29.56 in - SSW 16.1 mph 27.6 mph N/A   Unknown
8:52 PM 77.0 °F - 52.0 °F 42% 29.55 in - South 17.3 mph 23.0 mph N/A   Unknown
9:52 PM 75.0 °F - 51.1 °F 43% 29.56 in - SSW 20.7 mph 26.5 mph N/A   Unknown
10:52 PM 73.0 °F - 50.0 °F 44% 29.56 in - SSW 24.2 mph 31.1 mph N/A   Unknown
11:52 PM 72.0 °F - 50.0 °F 46% 29.57 in - SSW 19.6 mph 27.6 mph N/A   Unknown